EW6791 Weather Reports


Display with metric or nautical units.
time (UTC)temp
F
wind
direction
speed
MPH
gust
MPH
rain 1hr
in
rain 24hr
in
rain mn
in
humidity
%
barometer
mb
20260831171554 68 118 0.0 2.0 0.00 0.00 0.00 79 1013.2
20260831170058 70 256 0.0 5.0 0.00 0.00 0.00 79 1014.3
20260831164555 70 190 0.0 0.0 0.00 0.00 0.00 79 1014.0
20260831163054 70 198 0.0 0.0 0.00 0.00 0.00 79 1014.0
20260831161553 70 319 0.0 0.0 0.00 0.00 0.00 79 1014.1
20260831160054 70 193 0.0 0.0 0.00 0.00 0.00 79 1014.3
20260831154551 70 292 0.0 0.0 0.00 0.00 0.00 79 1014.4
20260831153055 69 191 0.0 4.0 0.00 0.00 0.00 79 1014.5
20260831151559 69 244 0.0 3.0 0.00 0.00 0.00 79 1014.7
20260831150051 69 263 0.0 4.0 0.00 0.00 0.00 79 1014.9
20260831144605 69 213 0.0 3.0 0.00 0.00 0.00 79 1015.0
20260831143048 69 238 0.0 3.0 0.00 0.00 0.00 79 1014.5
20260831141549 69 176 0.0 0.0 0.00 0.00 0.00 78 1014.4
20260831140042 69 34 0.0 0.0 0.00 0.00 0.00 78 1014.2
20260831134542 69 42 0.0 0.0 0.00 0.00 0.00 78 1013.7
20260831133039 69 34 0.0 0.0 0.00 0.00 0.00 78 1013.6
20260831131542 70 63 0.0 0.0 0.00 0.00 0.00 78 1013.4
20260831130046 69 86 0.0 0.0 0.00 0.00 0.00 78 1013.1
20260831124538 69 68 0.0 0.0 0.00 0.00 0.00 78 1013.0
20260831123037 69 99 0.0 0.0 0.00 0.00 0.00 78 1013.1
20260831121538 69 99 0.0 0.0 0.00 0.00 0.00 78 1013.4
20260831120034 70 135 0.0 0.0 0.00 0.00 0.00 78 1013.3
20260831114534 69 132 0.0 0.0 0.00 0.00 0.00 79 1013.3
20260831113030 68 180 0.0 0.0 0.00 0.00 0.00 79 1013.3
20260831111539 68 180 0.0 0.0 0.00 0.00 0.00 79 1013.1
20260831110028 68 181 0.0 0.0 0.00 0.00 0.00 79 1013.3
20260831104530 68 160 0.0 0.0 0.00 0.00 0.00 79 1013.1
20260831103025 68 150 0.0 0.0 0.00 0.00 0.00 79 1013.1
20260831101525 68 191 0.0 0.0 0.00 0.00 0.00 79 1013.4
20260831100025 68 143 0.0 0.0 0.00 0.00 0.00 79 1013.3
20260831094529 68 98 0.0 0.0 0.00 0.00 0.00 79 1013.3
20260831093024 68 160 0.0 0.0 0.00 0.00 0.00 80 1013.8
20260831091522 68 117 0.0 0.0 0.00 0.00 0.00 79 1013.6
20260831090022 68 56 0.0 0.0 0.00 0.00 0.00 79 1013.2
20260831084534 68 86 0.0 0.0 0.00 0.00 0.00 79 1013.3
20260831083021 68 117 0.0 0.0 0.00 0.00 0.00 79 1013.2
20260831081525 68 131 0.0 0.0 0.00 0.00 0.00 79 1013.0
20260831080019 68 136 0.0 0.0 0.00 0.00 0.00 79 1012.9
20260831074533 68 81 0.0 0.0 0.00 0.00 0.00 79 1013.1
20260831073043 68 46 0.0 0.0 0.00 0.00 0.00 79 1013.3
20260831071515 68 79 0.0 0.0 0.00 0.00 0.00 79 1013.2
20260831070021 68 108 0.0 0.0 0.00 0.00 0.00 79 1013.3
20260831064528 68 88 0.0 0.0 0.00 0.00 0.00 79 1013.5
20260831063017 68 123 0.0 0.0 0.00 0.00 0.00 79 1013.6
20260831061512 68 76 0.0 0.0 0.00 0.00 0.00 79 1013.7
20260831060011 68 109 0.0 0.0 0.00 0.00 0.00 79 1013.7
20260831054511 68 84 0.0 0.0 0.00 0.00 0.00 79 1013.7
20260831053017 68 66 0.0 0.0 0.00 0.00 0.00 79 1013.7
20260831051513 68 77 0.0 0.0 0.00 0.00 0.00 79 1013.7
20260831050026 68 13 0.0 0.0 0.00 0.00 0.00 79 1013.7
20260831044507 68 345 0.0 0.0 0.00 0.00 0.00 79 1013.7
20260831043008 68 339 0.0 0.0 0.00 0.00 0.00 79 1013.7
20260831041506 68 339 0.0 0.0 0.00 0.00 0.00 79 1013.8
20260831040018 68 339 0.0 0.0 0.00 0.00 0.00 79 1013.9
20260831034502 68 339 0.0 0.0 0.00 0.00 0.00 79 1013.9
20260831033003 68 32 0.0 0.0 0.00 0.00 0.00 79 1013.8
20260831031501 68 31 0.0 0.0 0.00 0.00 0.00 79 1014.0
20260831030104 68 11 0.0 0.0 0.00 0.00 0.00 79 1013.9
20260831024559 68 27 0.0 0.0 0.00 0.00 0.00 79 1013.9
20260831023058 68 27 0.0 0.0 0.00 0.00 0.00 79 1013.7
20260831021559 67 354 0.0 0.0 0.00 0.00 0.00 79 1013.6
20260831020058 67 352 0.0 0.0 0.00 0.00 0.00 79 1013.5
20260831014558 67 352 0.0 0.0 0.00 0.00 0.00 79 1013.5
20260831013057 67 352 0.0 0.0 0.00 0.00 0.00 79 1013.5
20260831011556 67 352 0.0 0.0 0.00 0.00 0.00 79 1013.4
20260831010100 67 352 0.0 0.0 0.00 0.00 0.00 79 1013.5
20260831004555 67 352 0.0 0.0 0.00 0.00 0.00 79 1013.5
20260831003053 67 351 0.0 0.0 0.00 0.00 0.00 79 1013.6
20260831001552 67 351 0.0 0.0 0.00 0.00 0.00 79 1013.6
20260831000059 67 351 0.0 0.0 0.00 0.00 0.00 79 1013.8
20260830234557 67 13 0.0 0.0 0.00 0.00 0.00 79 1013.8
20260830233059 67 351 0.0 0.0 0.00 0.00 0.00 79 1013.9
20260830231550 67 13 0.0 0.0 0.00 0.00 0.00 79 1013.9
20260830230048 67 8 0.0 0.0 0.00 0.00 0.00 79 1014.0
20260830224548 67 37 0.0 0.0 0.00 0.00 0.00 79 1013.9
20260830223049 67 4 0.0 0.0 0.00 0.00 0.00 78 1014.1
20260830221550 67 4 0.0 0.0 0.00 0.00 0.00 78 1014.3
20260830220059 67 4 0.0 0.0 0.00 0.00 0.00 78 1014.1
20260830214546 67 73 0.0 1.0 0.00 0.00 0.00 78 1014.3
20260830213045 68 6 0.0 1.0 0.00 0.00 0.00 78 1014.3
20260830211549 68 353 0.0 1.0 0.00 0.00 0.00 78 1014.2
20260830210048 68 18 0.0 0.0 0.00 0.00 0.00 78 1014.2
20260830204555 68 22 0.0 0.0 0.00 0.00 0.00 78 1014.0
20260830203042 67 14 0.0 0.0 0.00 0.00 0.00 78 1014.2
20260830201555 67 14 0.0 0.0 0.00 0.00 0.00 79 1014.3
20260830200044 67 5 0.0 0.0 0.00 0.00 0.00 79 1014.2
20260830194541 67 6 0.0 0.0 0.00 0.00 0.00 79 1014.6
20260830193038 66 6 0.0 0.0 0.00 0.00 0.00 79 1014.6
20260830191613 66 6 0.0 1.0 0.00 0.00 0.00 79 1014.7
20260830190052 66 347 0.0 1.0 0.00 0.00 0.00 79 1014.7
20260830184538 66 349 0.0 1.0 0.00 0.00 0.00 79 1014.8
20260830183035 66 278 0.0 2.0 0.00 0.00 0.00 79 1014.8
20260830181534 66 7 0.0 0.0 0.00 0.00 0.00 79 1014.8
20260830180037 66 304 0.0 0.0 0.00 0.00 0.00 79 1014.8
20260830174535 66 70 0.0 0.0 0.00 0.00 0.00 79 1014.7
20260830173032 66 352 0.0 1.0 0.00 0.00 0.00 79 1014.9